Time,TemperatureF,DewpointF,PressureIn,WindDirection,WindDirectionDegrees,WindSpeedMPH,WindSpeedGustMPH,Humidity,HourlyPrecipIn,Conditions,Clouds,dailyrainin,SoftwareType,DateUTC
2013-01-17 00:04:00,34.0,28.0,-100.00,SW,220,8.0,18.0,78,0.00,,,-99.99,,2013-01-17 05:04:00,
2013-01-17 00:12:00,34.0,28.0,-100.00,SW,220,9.0,17.0,79,0.00,,,-99.99,,2013-01-17 05:12:00,
2013-01-17 00:22:00,34.0,28.0,-100.00,SW,215,7.0,13.0,79,0.00,,,-99.99,,2013-01-17 05:22:00,
2013-01-17 00:33:00,34.0,28.0,-100.00,SW,220,9.0,16.0,80,0.00,,,-99.99,,2013-01-17 05:33:00,
2013-01-17 00:42:00,34.0,28.0,-100.00,SW,220,9.0,16.0,80,0.00,,,-99.99,,2013-01-17 05:42:00,
2013-01-17 00:52:00,34.0,29.0,-100.00,SW,220,9.0,14.0,81,0.00,,,-99.99,,2013-01-17 05:52:00,
2013-01-17 01:03:00,34.0,29.0,-100.00,SW,235,10.0,16.0,82,0.00,,,-99.99,,2013-01-17 06:03:00,
2013-01-17 01:12:00,34.0,29.0,-100.00,SW,220,9.0,14.0,83,0.00,,,-99.99,,2013-01-17 06:12:00,
2013-01-17 01:22:00,34.0,29.0,-100.00,SW,230,8.0,12.0,83,0.00,,,-99.99,,2013-01-17 06:22:00,
2013-01-17 01:33:00,34.0,30.0,-100.00,SW,225,8.0,15.0,84,0.00,,,-99.99,,2013-01-17 06:33:00,
2013-01-17 01:42:00,34.0,30.0,-100.00,SW,230,7.0,15.0,85,0.00,,,-99.99,,2013-01-17 06:42:00,
2013-01-17 01:52:00,34.0,30.0,-100.00,SW,225,8.0,13.0,85,0.00,,,-99.99,,2013-01-17 06:52:00,
2013-01-17 02:02:00,34.0,30.0,-100.00,SW,235,7.0,14.0,85,0.00,,,-99.99,,2013-01-17 07:02:00,
2013-01-17 02:12:00,34.0,30.0,-100.00,SW,230,6.0,12.0,86,0.00,,,-99.99,,2013-01-17 07:12:00,
2013-01-17 02:22:00,34.0,30.0,-100.00,WSW,240,6.0,11.0,86,0.00,,,-99.99,,2013-01-17 07:22:00,
2013-01-17 02:33:00,34.0,30.0,-100.00,WSW,240,6.0,11.0,86,0.00,,,-99.99,,2013-01-17 07:33:00,
2013-01-17 02:42:00,34.0,31.0,-100.00,WSW,240,6.0,14.0,87,0.00,,,-99.99,,2013-01-17 07:42:00,
2013-01-17 02:52:00,34.0,31.0,-100.00,SW,225,7.0,15.0,87,0.00,,,-99.99,,2013-01-17 07:52:00,
2013-01-17 03:02:00,34.0,31.0,-100.00,WSW,245,6.0,12.0,87,0.00,,,-99.99,,2013-01-17 08:02:00,
2013-01-17 03:12:00,34.0,31.0,-100.00,SW,215,7.0,12.0,87,0.00,,,-99.99,,2013-01-17 08:12:00,
2013-01-17 03:22:00,34.0,31.0,-100.00,SW,225,6.0,12.0,88,0.00,,,-99.99,,2013-01-17 08:22:00,
2013-01-17 03:32:00,34.0,31.0,-100.00,SW,235,7.0,9.0,88,0.00,,,-99.99,,2013-01-17 08:32:00,
2013-01-17 03:43:00,34.0,31.0,-100.00,SW,220,4.0,11.0,88,0.00,,,-99.99,,2013-01-17 08:43:00,
2013-01-17 03:52:00,34.0,31.0,-100.00,SW,215,5.0,12.0,88,0.00,,,-99.99,,2013-01-17 08:52:00,
2013-01-17 04:03:00,34.0,31.0,-100.00,WSW,250,6.0,11.0,88,0.00,,,-99.99,,2013-01-17 09:03:00,
2013-01-17 04:12:00,34.0,31.0,-100.00,SW,225,7.0,9.0,89,0.00,,,-99.99,,2013-01-17 09:12:00,
2013-01-17 04:22:00,34.0,31.0,-100.00,SW,215,6.0,11.0,89,0.00,,,-99.99,,2013-01-17 09:22:00,
2013-01-17 04:32:00,34.0,31.0,-100.00,SW,215,4.0,11.0,89,0.00,,,-99.99,,2013-01-17 09:32:00,
2013-01-17 04:42:00,34.0,31.0,-100.00,WSW,245,6.0,10.0,89,0.00,,,-99.99,,2013-01-17 09:42:00,
2013-01-17 04:52:00,35.0,32.0,-100.00,SW,220,6.0,10.0,89,0.00,,,-99.99,,2013-01-17 09:52:00,
2013-01-17 05:02:00,35.0,32.0,-100.00,SW,220,6.0,10.0,89,0.00,,,-99.99,,2013-01-17 10:02:00,
2013-01-17 05:12:00,35.0,32.0,-100.00,SW,220,6.0,10.0,89,0.00,,,-99.99,,2013-01-17 10:12:00,
2013-01-17 05:22:00,34.0,32.0,-100.00,SW,225,2.0,8.0,89,0.00,,,-99.99,,2013-01-17 10:22:00,
2013-01-17 05:32:00,34.0,32.0,-100.00,SW,215,2.0,7.0,90,0.00,,,-99.99,,2013-01-17 10:32:00,
2013-01-17 05:42:00,34.0,32.0,-100.00,SSW,210,4.0,7.0,90,0.00,,,-99.99,,2013-01-17 10:42:00,
2013-01-17 05:52:00,34.0,32.0,-100.00,SW,220,4.0,7.0,91,0.00,,,-99.99,,2013-01-17 10:52:00,
2013-01-17 06:03:00,34.0,32.0,-100.00,SW,220,4.0,7.0,90,0.00,,,-99.99,,2013-01-17 11:03:00,
2013-01-17 06:12:00,34.0,32.0,-100.00,SW,225,5.0,9.0,91,0.00,,,-99.99,,2013-01-17 11:12:00,
2013-01-17 06:22:00,34.0,32.0,-100.00,SW,225,5.0,9.0,91,0.00,,,-99.99,,2013-01-17 11:22:00,
2013-01-17 06:33:00,34.0,32.0,-100.00,SW,230,4.0,9.0,92,0.00,,,-99.99,,2013-01-17 11:33:00,
2013-01-17 06:42:00,34.0,32.0,-100.00,SW,215,4.0,9.0,92,0.00,,,-99.99,,2013-01-17 11:42:00,
2013-01-17 06:52:00,34.0,32.0,-100.00,SW,230,4.0,6.0,92,0.00,,,-99.99,,2013-01-17 11:52:00,
2013-01-17 07:03:00,34.0,32.0,-100.00,SW,230,4.0,6.0,92,0.00,,,-99.99,,2013-01-17 12:03:00,
2013-01-17 07:12:00,33.0,31.0,-100.00,SW,215,3.0,7.0,92,0.00,,,-99.99,,2013-01-17 12:12:00,
2013-01-17 07:23:00,33.0,31.0,-100.00,SSW,195,3.0,6.0,93,0.00,,,-99.99,,2013-01-17 12:23:00,
2013-01-17 07:33:00,33.0,31.0,-100.00,SW,230,4.0,6.0,94,0.00,,,-99.99,,2013-01-17 12:33:00,
2013-01-17 07:43:00,33.0,31.0,-100.00,SSW,205,3.0,6.0,94,0.00,,,-99.99,,2013-01-17 12:43:00,
2013-01-17 07:52:00,32.0,31.0,-100.00,SW,220,1.0,4.0,94,0.00,,,-99.99,,2013-01-17 12:52:00,
2013-01-17 08:03:00,32.0,31.0,-100.00,SW,230,1.0,4.0,94,0.00,,,-99.99,,2013-01-17 13:03:00,
2013-01-17 08:12:00,32.0,31.0,-100.00,SSW,205,1.0,3.0,95,0.00,,,-99.99,,2013-01-17 13:12:00,
2013-01-17 08:23:00,32.0,31.0,-100.00,SW,235,2.0,4.0,95,0.00,,,-99.99,,2013-01-17 13:23:00,
2013-01-17 08:33:00,32.0,31.0,-100.00,WSW,240,2.0,4.0,96,0.00,,,-99.99,,2013-01-17 13:33:00,
2013-01-17 08:43:00,31.0,31.0,-100.00,SW,235,3.0,4.0,96,0.00,,,-99.99,,2013-01-17 13:43:00,
2013-01-17 08:52:00,32.0,31.0,-100.00,WSW,245,3.0,6.0,96,0.00,,,-99.99,,2013-01-17 13:52:00,
2013-01-17 09:03:00,32.0,31.0,-100.00,SW,215,2.0,5.0,96,0.00,,,-99.99,,2013-01-17 14:03:00,
2013-01-17 09:12:00,32.0,31.0,-100.00,SSW,205,1.0,4.0,96,0.00,,,-99.99,,2013-01-17 14:12:00,
2013-01-17 09:23:00,32.0,31.0,-100.00,SSW,205,1.0,4.0,96,0.00,,,-99.99,,2013-01-17 14:23:00,
2013-01-17 09:33:00,32.0,31.0,-100.00,SSE,165,1.0,4.0,96,0.00,,,-99.99,,2013-01-17 14:33:00,
2013-01-17 09:43:00,32.0,32.0,-100.00,South,170,2.0,4.0,96,0.00,,,-99.99,,2013-01-17 14:43:00,
2013-01-17 09:53:00,33.0,32.0,-100.00,SW,230,2.0,6.0,96,0.00,,,-99.99,,2013-01-17 14:53:00,
2013-01-17 10:03:00,33.0,32.0,-100.00,SW,230,2.0,6.0,96,0.00,,,-99.99,,2013-01-17 15:03:00,
2013-01-17 10:12:00,33.0,32.0,-100.00,South,185,2.0,6.0,96,0.00,,,-99.99,,2013-01-17 15:12:00,
2013-01-17 10:23:00,33.0,32.0,-100.00,South,175,4.0,6.0,96,0.00,,,-99.99,,2013-01-17 15:23:00,
2013-01-17 10:33:00,33.0,33.0,-100.00,South,185,3.0,7.0,96,0.00,,,-99.99,,2013-01-17 15:33:00,
2013-01-17 10:43:00,33.0,33.0,-100.00,SW,225,5.0,9.0,96,0.00,,,-99.99,,2013-01-17 15:43:00,
2013-01-17 10:53:00,34.0,33.0,-100.00,SW,220,4.0,8.0,96,0.00,,,-99.99,,2013-01-17 15:53:00,
2013-01-17 11:03:00,35.0,34.0,-100.00,SSW,200,3.0,8.0,96,0.00,,,-99.99,,2013-01-17 16:03:00,
2013-01-17 11:12:00,35.0,34.0,-100.00,SW,235,3.0,7.0,96,0.00,,,-99.99,,2013-01-17 16:12:00,
2013-01-17 11:23:00,35.0,34.0,-100.00,WSW,240,6.0,9.0,94,0.00,,,-99.99,,2013-01-17 16:23:00,
2013-01-17 11:33:00,36.0,34.0,-100.00,WSW,250,7.0,11.0,94,0.00,,,-99.99,,2013-01-17 16:33:00,
2013-01-17 11:43:00,35.0,34.0,-100.00,WSW,255,7.0,11.0,92,0.00,,,-99.99,,2013-01-17 16:43:00,
2013-01-17 11:53:00,36.0,34.0,-100.00,WSW,255,9.0,11.0,91,0.00,,,-99.99,,2013-01-17 16:53:00,
2013-01-17 12:03:00,36.0,34.0,-100.00,WSW,250,7.0,12.0,89,0.00,,,-99.99,,2013-01-17 17:03:00,
2013-01-17 12:13:00,37.0,33.0,-100.00,West,265,7.0,11.0,85,0.00,,,-99.99,,2013-01-17 17:13:00,
2013-01-17 12:23:00,37.0,33.0,-100.00,West,265,7.0,11.0,85,0.00,,,-99.99,,2013-01-17 17:23:00,
2013-01-17 12:33:00,37.0,31.0,-100.00,West,280,7.0,12.0,79,0.00,,,-99.99,,2013-01-17 17:33:00,
2013-01-17 12:43:00,38.0,30.0,-100.00,West,265,9.0,12.0,73,0.00,,,-99.99,,2013-01-17 17:43:00,
2013-01-17 12:53:00,37.0,30.0,-100.00,West,265,5.0,12.0,73,0.00,,,-99.99,,2013-01-17 17:53:00,
2013-01-17 13:04:00,38.0,30.0,-100.00,WNW,290,6.0,11.0,73,0.00,,,-99.99,,2013-01-17 18:04:00,
2013-01-17 13:12:00,38.0,31.0,-100.00,West,270,6.0,10.0,74,0.00,,,-99.99,,2013-01-17 18:12:00,
2013-01-17 13:22:00,38.0,31.0,-100.00,WNW,295,6.0,11.0,75,0.00,,,-99.99,,2013-01-17 18:22:00,
2013-01-17 13:33:00,38.0,30.0,-100.00,WSW,255,9.0,12.0,73,0.00,,,-99.99,,2013-01-17 18:33:00,
2013-01-17 13:43:00,37.0,30.0,-100.00,WNW,295,4.0,12.0,74,0.00,,,-99.99,,2013-01-17 18:43:00,
2013-01-17 13:53:00,38.0,30.0,-100.00,WSW,255,5.0,10.0,73,0.00,,,-99.99,,2013-01-17 18:53:00,
2013-01-17 14:03:00,39.0,30.0,-100.00,West,280,9.0,12.0,71,0.00,,,-99.99,,2013-01-17 19:03:00,
2013-01-17 14:12:00,39.0,30.0,-100.00,WNW,290,5.0,8.0,70,0.00,,,-99.99,,2013-01-17 19:12:00,
2013-01-17 14:23:00,40.0,30.0,-100.00,West,265,5.0,9.0,68,0.00,,,-99.99,,2013-01-17 19:23:00,
2013-01-17 14:33:00,39.0,29.0,-100.00,West,260,9.0,11.0,66,0.00,,,-99.99,,2013-01-17 19:33:00,
2013-01-17 14:43:00,40.0,28.0,-100.00,West,265,8.0,16.0,63,0.00,,,-99.99,,2013-01-17 19:43:00,
2013-01-17 14:53:00,39.0,28.0,-100.00,WNW,285,11.0,16.0,63,0.00,,,-99.99,,2013-01-17 19:53:00,
2013-01-17 15:03:00,39.0,28.0,-100.00,West,260,9.0,16.0,62,0.00,,,-99.99,,2013-01-17 20:03:00,
2013-01-17 15:12:00,40.0,28.0,-100.00,West,265,11.0,16.0,62,0.00,,,-99.99,,2013-01-17 20:12:00,
2013-01-17 15:23:00,39.0,28.0,-100.00,WSW,250,11.0,16.0,62,0.00,,,-99.99,,2013-01-17 20:23:00,
2013-01-17 15:33:00,40.0,28.0,-100.00,WSW,255,10.0,15.0,60,0.00,,,-99.99,,2013-01-17 20:33:00,
2013-01-17 15:43:00,40.0,27.0,-100.00,West,260,11.0,16.0,59,0.00,,,-99.99,,2013-01-17 20:43:00,
2013-01-17 15:53:00,40.0,27.0,-100.00,West,270,11.0,16.0,59,0.00,,,-99.99,,2013-01-17 20:53:00,
2013-01-17 16:03:00,40.0,26.0,-100.00,West,260,11.0,17.0,58,0.00,,,-99.99,,2013-01-17 21:03:00,
2013-01-17 16:13:00,40.0,27.0,-100.00,WNW,285,10.0,16.0,59,0.00,,,-99.99,,2013-01-17 21:13:00,
2013-01-17 16:23:00,40.0,27.0,-100.00,West,270,7.0,14.0,59,0.00,,,-99.99,,2013-01-17 21:23:00,
2013-01-17 16:34:00,39.0,27.0,-100.00,West,260,11.0,16.0,60,0.00,,,-99.99,,2013-01-17 21:34:00,
2013-01-17 16:43:00,39.0,26.0,-100.00,West,275,11.0,16.0,59,0.00,,,-99.99,,2013-01-17 21:43:00,
2013-01-17 16:52:00,39.0,26.0,-100.00,West,260,11.0,17.0,60,0.00,,,-99.99,,2013-01-17 21:52:00,
2013-01-17 17:03:00,39.0,26.0,-100.00,West,270,9.0,20.0,60,0.00,,,-99.99,,2013-01-17 22:03:00,
2013-01-17 17:12:00,38.0,26.0,-100.00,West,265,12.0,17.0,60,0.00,,,-99.99,,2013-01-17 22:12:00,
2013-01-17 17:23:00,38.0,26.0,-100.00,West,265,12.0,17.0,62,0.00,,,-99.99,,2013-01-17 22:23:00,
2013-01-17 17:33:00,38.0,26.0,-100.00,West,265,12.0,17.0,62,0.00,,,-99.99,,2013-01-17 22:33:00,
2013-01-17 17:43:00,37.0,25.0,-100.00,West,270,9.0,18.0,62,0.00,,,-99.99,,2013-01-17 22:43:00,
2013-01-17 17:52:00,37.0,25.0,-100.00,West,265,12.0,18.0,62,0.00,,,-99.99,,2013-01-17 22:52:00,
2013-01-17 18:03:00,36.0,24.0,-100.00,West,270,13.0,21.0,60,0.00,,,-99.99,,2013-01-17 23:03:00,
2013-01-17 18:12:00,35.0,23.0,-100.00,West,270,12.0,19.0,60,0.00,,,-99.99,,2013-01-17 23:12:00,
2013-01-17 18:23:00,35.0,23.0,-100.00,West,265,11.0,19.0,61,0.00,,,-99.99,,2013-01-17 23:23:00,
2013-01-17 18:33:00,34.0,23.0,-100.00,West,265,10.0,16.0,62,0.00,,,-99.99,,2013-01-17 23:33:00,
2013-01-17 18:43:00,34.0,23.0,-100.00,West,270,9.0,15.0,64,0.00,,,-99.99,,2013-01-17 23:43:00,
2013-01-17 18:53:00,33.0,23.0,-100.00,WNW,285,7.0,14.0,66,0.00,,,-99.99,,2013-01-17 23:53:00,
2013-01-17 19:03:00,33.0,23.0,-100.00,West,275,7.0,11.0,66,0.00,,,-99.99,,2013-01-18 00:03:00,
2013-01-17 19:12:00,32.0,22.0,-100.00,West,280,9.0,15.0,66,0.00,,,-99.99,,2013-01-18 00:12:00,
2013-01-17 19:23:00,32.0,22.0,-100.00,West,280,9.0,15.0,67,0.00,,,-99.99,,2013-01-18 00:23:00,
2013-01-17 19:33:00,31.0,22.0,-100.00,West,275,9.0,16.0,67,0.00,,,-99.99,,2013-01-18 00:33:00,
2013-01-17 19:42:00,31.0,20.0,-100.00,West,275,15.0,21.0,63,0.00,,,-99.99,,2013-01-18 00:42:00,
2013-01-17 19:52:00,31.0,19.0,-100.00,WNW,290,16.0,22.0,62,0.00,,,-99.99,,2013-01-18 00:52:00,
2013-01-17 20:03:00,30.0,19.0,-100.00,West,280,12.0,19.0,62,0.00,,,-99.99,,2013-01-18 01:03:00,
2013-01-17 20:12:00,30.0,20.0,-100.00,West,265,10.0,14.0,65,0.00,,,-99.99,,2013-01-18 01:12:00,
2013-01-17 20:23:00,29.0,20.0,-100.00,West,270,10.0,16.0,68,0.00,,,-99.99,,2013-01-18 01:23:00,
2013-01-17 20:33:00,29.0,20.0,-100.00,WNW,285,7.0,15.0,69,0.00,,,-99.99,,2013-01-18 01:33:00,
2013-01-17 20:43:00,28.0,20.0,-100.00,West,280,11.0,16.0,71,0.00,,,-99.99,,2013-01-18 01:43:00,
2013-01-17 20:52:00,28.0,19.0,-100.00,West,275,13.0,23.0,68,0.00,,,-99.99,,2013-01-18 01:52:00,
2013-01-17 21:03:00,27.0,18.0,-100.00,West,270,16.0,24.0,68,0.00,,,-99.99,,2013-01-18 02:03:00,
2013-01-17 21:12:00,27.0,18.0,-100.00,West,280,11.0,22.0,69,0.00,,,-99.99,,2013-01-18 02:12:00,
2013-01-17 21:22:00,26.0,18.0,-100.00,West,275,14.0,24.0,70,0.00,,,-99.99,,2013-01-18 02:22:00,
2013-01-17 21:33:00,26.0,17.0,-100.00,West,275,14.0,26.0,70,0.00,,,-99.99,,2013-01-18 02:33:00,
2013-01-17 21:42:00,25.0,17.0,-100.00,West,280,14.0,24.0,70,0.00,,,-99.99,,2013-01-18 02:42:00,
2013-01-17 21:52:00,25.0,17.0,-100.00,WNW,285,15.0,21.0,71,0.00,,,-99.99,,2013-01-18 02:52:00,
2013-01-17 22:02:00,24.0,17.0,-100.00,WNW,285,13.0,21.0,71,0.00,,,-99.99,,2013-01-18 03:02:00,
2013-01-17 22:12:00,24.0,16.0,-100.00,WNW,285,14.0,21.0,71,0.00,,,-99.99,,2013-01-18 03:12:00,
2013-01-17 22:23:00,24.0,15.0,-100.00,WNW,285,15.0,22.0,69,0.00,,,-99.99,,2013-01-18 03:23:00,
2013-01-17 22:33:00,23.0,14.0,-100.00,West,270,11.0,22.0,66,0.00,,,-99.99,,2013-01-18 03:33:00,
2013-01-17 22:42:00,23.0,14.0,-100.00,West,275,11.0,24.0,66,0.00,,,-99.99,,2013-01-18 03:42:00,
2013-01-17 22:52:00,23.0,13.0,-100.00,West,275,16.0,22.0,65,0.00,,,-99.99,,2013-01-18 03:52:00,
2013-01-17 23:02:00,23.0,14.0,-100.00,West,280,9.0,17.0,67,0.00,,,-99.99,,2013-01-18 04:02:00,
2013-01-17 23:12:00,22.0,13.0,-100.00,WNW,285,9.0,17.0,67,0.00,,,-99.99,,2013-01-18 04:12:00,
2013-01-17 23:22:00,22.0,13.0,-100.00,WNW,285,9.0,17.0,67,0.00,,,-99.99,,2013-01-18 04:22:00,
2013-01-17 23:33:00,22.0,13.0,-100.00,WNW,300,9.0,12.0,68,0.00,,,-99.99,,2013-01-18 04:33:00,
2013-01-17 23:42:00,22.0,13.0,-100.00,WNW,290,10.0,14.0,66,0.00,,,-99.99,,2013-01-18 04:42:00,
2013-01-17 23:52:00,22.0,13.0,-100.00,WNW,285,7.0,12.0,66,0.00,,,-99.99,,2013-01-18 04:52:00,